Location: ???? ?????
(30.0052°N, 31.2891°E)
Time: 07:07:47
(UTC+00:00)

Iridium 16 - Pass Details

Date: 29 January 2023
Orbit: 766 x 768 km, 86.4° (Epoch: 23 March)

Event Time Altitude Azimuth Distance (km) Brightness Sun altitude
Rises 04:11:38 0° 207° (SSW) 3,218 8.6 -8.1°
Reaches altitude 10° 04:14:16 10° 218° (SW) 2,296 7.8 -7.6°
Maximum altitude 04:18:37 28° 277° (W) 1,415 6.4 -6.7°
Drops below altitude 10° 04:23:01 10° 335° (NNW) 2,308 7.6 -5.8°
Sets 04:25:41 0° 347° (NNW) 3,239 8.4 -5.2°
